Location: Caltech
(34.1382°N, 118.1253°W)
Time: 19:12:02
(UTC-07:00)

Iridium 12 - Visible Passes

Search period start: 27 August 2016 00:00
Search period end: 06 September 2016 00:00
Orbit: 776 x 779 km, 86.4° (Epoch: 27 August)

Date Brightness Start Highest point End Pass type
(mag) Time Alt. Az. Time Alt. Az. Time Alt. Az.
27 Aug 6.5 20:52:05 10° NNE 20:56:25 28° E 20:56:25 28° E visible
27 Aug 7.3 22:32:49 10° NNW 22:36:54 26° W 22:36:54 26° W visible
28 Aug 7.2 20:19:56 10° NE 20:22:46 15° ENE 20:23:13 14° E visible
28 Aug 6.2 21:58:43 10° NNW 22:03:42 51° W 22:03:42 51° W visible
29 Aug 5.3 21:25:04 10° N 21:30:18 82° E 21:30:32 79° SE visible
30 Aug 5.9 20:51:48 10° NNE 20:56:44 41° E 20:57:24 39° ESE visible
30 Aug 7.8 22:33:37 10° NW 22:37:02 18° W 22:37:54 17° W visible
31 Aug 6.7 20:19:03 10° NNE 20:23:02 22° E 20:24:18 20° E visible
31 Aug 6.9 21:59:06 10° NNW 22:03:46 34° W 22:04:47 31° WSW visible
01 Sep 7.4 19:47:51 10° ENE 19:49:12 11° ENE 19:50:34 10° E visible
01 Sep 5.7 21:25:11 10° N 21:30:22 67° W 21:31:43 47° SSW visible
02 Sep 5.5 20:51:41 10° N 20:56:52 63° E 20:58:42 39° SSE visible
02 Sep 8.3 22:35:09 10° WNW 22:36:55 12° WNW 22:38:42 10° W visible
03 Sep 6.2 20:18:36 10° NNE 20:23:15 32° E 20:25:44 21° SE visible
03 Sep 7.6 21:59:41 10° NNW 22:03:43 23° W 22:06:14 16° WSW visible
04 Sep 7.0 19:46:11 10° NE 19:49:30 17° ENE 19:52:48 10° ESE visible
04 Sep 6.5 21:25:28 10° NNW 21:30:24 44° W 21:33:20 22° SSW visible
05 Sep 5.5 20:51:43 10° N 20:56:58 87° W 21:00:31 21° S visible
